Location: Central Falls
(41.8900°N, 71.3929°W)
Time: 22:02:21
(UTC+00:00)

Vanguard 1 - Visible Passes

Search period start: 06 December 2023 00:00
Search period end: 16 December 2023 00:00
Orbit: 652 x 3828 km, 34.3° (Epoch: 05 December)

Date Brightness Start Highest point End Pass type
(mag) Time Alt. Az. Time Alt. Az. Time Alt. Az.
06 Dec 12.8 01:57:51 10° W 02:15:56 63° SW 02:15:56 63° SW visible
06 Dec 13.9 04:22:59 10° W 04:28:35 21° W 04:28:35 21° W visible
06 Dec 12.8 21:36:06 10° SW 21:48:43 50° SSE 22:09:00 10° E visible
06 Dec 12.7 23:55:58 10° WSW 00:12:58 69° S 00:22:26 45° ESE visible
07 Dec 13.0 02:18:38 10° W 02:35:05 56° SW 02:35:05 56° SW visible
07 Dec 14.0 04:44:24 10° W 04:47:44 16° W 04:47:44 16° W visible
07 Dec 12.7 21:56:04 10° SW 22:09:05 56° SSE 22:28:57 12° E visible
08 Dec 12.7 00:16:30 10° W 00:33:52 69° S 00:41:37 51° ESE visible
08 Dec 13.1 02:39:30 10° W 02:54:16 49° WSW 02:54:16 49° WSW visible
08 Dec 14.2 05:06:13 10° W 05:06:56 11° W 05:06:56 11° W visible
08 Dec 12.6 22:16:12 10° WSW 22:29:36 62° SSE 22:48:09 16° E visible
09 Dec 12.7 00:37:05 10° W 00:54:48 68° S 01:00:49 56° SE visible
09 Dec 13.3 03:00:25 10° W 03:13:29 41° WSW 03:13:29 41° WSW visible
09 Dec 12.6 22:36:27 10° WSW 22:50:15 65° SSE 23:07:25 20° E visible
10 Dec 12.8 00:57:42 10° W 01:15:41 65° SSW 01:20:05 58° SSE visible
10 Dec 13.5 03:21:30 10° W 03:32:45 34° WSW 03:32:45 34° WSW visible
10 Dec 12.6 22:56:49 10° WSW 23:11:00 67° S 23:26:45 25° ESE visible
11 Dec 12.8 01:18:22 10° W 01:36:31 61° SSW 01:39:25 58° S visible
11 Dec 13.7 03:42:47 10° W 03:52:05 28° WSW 03:52:05 28° WSW visible
11 Dec 12.6 23:17:15 10° W 23:31:49 68° S 23:46:08 29° ESE visible
12 Dec 12.9 01:39:06 10° W 01:57:17 55° SSW 01:58:49 55° SSW visible
12 Dec 13.8 04:04:28 10° W 04:11:30 21° WSW 04:11:30 21° WSW visible
12 Dec 12.5 21:17:43 10° WSW 21:28:38 59° SSE 21:48:01 10° E visible
12 Dec 12.6 23:37:44 10° W 23:52:39 66° S 00:05:38 32° ESE visible
13 Dec 13.0 01:59:55 10° W 02:17:57 49° SSW 02:18:19 49° SSW visible
13 Dec 14.0 04:26:46 10° W 04:31:00 16° WSW 04:31:00 16° WSW visible
13 Dec 12.4 21:37:55 10° WSW 21:49:11 63° SSE 22:09:10 10° E visible
13 Dec 12.7 23:58:16 10° W 00:13:29 63° SSW 00:25:13 35° SE visible
14 Dec 13.2 02:20:54 10° W 02:37:55 42° SW 02:37:55 42° SW visible
14 Dec 14.2 04:50:20 10° W 04:50:37 10° W 04:50:37 10° W visible
14 Dec 12.4 21:58:13 10° WSW 22:09:49 65° S 22:30:17 10° E visible
15 Dec 12.8 00:18:51 10° W 00:34:16 59° SSW 00:44:57 36° SE visible
15 Dec 13.4 02:42:05 10° W 02:57:40 35° SW 02:57:40 35° SW visible
15 Dec 12.4 22:18:35 10° WSW 22:30:31 65° S 22:51:19 10° ESE visible
